Weather History for Galena, AK

Change the Weather History Date:

Wednesday, February 27, 2013

  Actual Average Record
Temperature  
Mean Temperature -4 °F -  
Max Temperature 9 °F 8 °F 37 °F (1970)
Min Temperature -18 °F -12 °F -45 °F (1956)
Degree Days  
Heating Degree Days 70    
Moisture  
Dew Point -10 °F    
Average Humidity 80    
Maximum Humidity 88    
Minimum Humidity 70    
Precipitation  
Precipitation 0.00 in - - ()
Sea Level Pressure  
Sea Level Pressure 29.46 in    
Wind  
Wind Speed 1 mph (East)    
Max Wind Speed 6 mph    
Max Gust Speed -    
Visibility 10 miles    
Events      
Averages and records for this station are not official NWS values.
T = Trace of Precipitation, MM = Missing Value Source: NWS Daily Summary

Daily Weather History Graph

Daily Weather History Graph

Search for Another Location

Airport:

Trip Planner

Search our weather history database for the weather conditions in past years. The results will help you decide how hot, cold, wet, or windy it might be!

Date:

Astronomy

Feb. 27, 2013 Rise Set
Actual Time 8:42 AM AKST 6:39 PM AKST
Civil Twilight 7:52 AM AKST 7:29 PM AKST
Nautical Twilight 6:56 AM AKST 8:25 PM AKST
Astronomical Twilight 5:58 AM AKST 9:24 PM AKST
Moon 10:31 PM AKST (2/27) 8:20 AM AKST (2/27)
Length of Visible Light 11h 36m
Length of Day
9h 57m
Waning Gibbous, 95% of the Moon is Illuminated
Feb 27
Waning Gibbous
Mar 4
Last Quarter
Mar 11
New
Mar 19
First Quarter
Mar 27
Full

Hourly Weather History & Observations

Time (AKST) Temp. Windchill Dew Point Humidity Pressure Visibility Wind Dir Wind Speed Gust Speed Precip Events Conditions
12:58 AM -9.0 °F - -11.9 °F 87% 29.56 in 10.0 mi Calm Calm - N/A   Clear
1:58 AM -11.9 °F - -16.1 °F 82% 29.55 in 9.0 mi Calm Calm - N/A   Clear
2:58 AM -13.0 °F - -18.0 °F 78% 29.55 in 10.0 mi Calm Calm - N/A   Clear
3:58 AM -15.0 °F - -20.0 °F 78% 29.53 in 10.0 mi Calm Calm - N/A   Clear
4:58 AM -17.0 °F - -20.9 °F 82% 29.52 in 10.0 mi Calm Calm - N/A   Clear
5:58 AM -18.9 °F - -24.0 °F 78% 29.50 in 10.0 mi Calm Calm - N/A   Clear
6:58 AM -18.0 °F - -23.1 °F 78% 29.49 in 10.0 mi Calm Calm - N/A   Clear
7:58 AM -18.0 °F - -23.1 °F 78% 29.49 in 10.0 mi Calm Calm - N/A   Clear
8:58 AM -18.0 °F -28.5 °F -23.1 °F 78% 29.49 in 10.0 mi ESE 3.5 mph - N/A   Clear
9:58 AM -16.1 °F -26.2 °F -20.0 °F 82% 29.48 in 10.0 mi East 3.5 mph - N/A   Clear
10:58 AM -11.9 °F - -16.1 °F 82% 29.47 in 10.0 mi Calm Calm - N/A   Clear
11:58 AM -5.1 °F - -9.0 °F 83% 29.47 in 10.0 mi Calm Calm - N/A   Clear
12:58 PM -2.0 °F - -6.0 °F 83% 29.47 in 9.0 mi Calm Calm - N/A   Clear
1:58 PM 3.9 °F -6.9 °F -0.0 °F 84% 29.45 in 10.0 mi NNW 5.8 mph - N/A   Mostly Cloudy
2:58 PM 5.0 °F -4.1 °F -2.0 °F 73% 29.44 in 10.0 mi ESE 4.6 mph - N/A   Overcast
3:58 PM 5.0 °F -5.6 °F -0.9 °F 76% 29.42 in 10.0 mi ESE 5.8 mph - N/A   Overcast
4:58 PM 9.0 °F - 1.0 °F 70% 29.41 in 10.0 mi Calm Calm - N/A   Overcast
5:58 PM 7.0 °F 0.1 °F 1.0 °F 77% 29.40 in 10.0 mi West 3.5 mph - N/A   Overcast
6:58 PM 8.1 °F - 1.9 °F 76% 29.40 in 10.0 mi Calm Calm - N/A   Overcast
7:58 PM 9.0 °F - 3.0 °F 77% 29.39 in 10.0 mi Calm Calm - N/A   Overcast
8:58 PM 7.0 °F - 1.9 °F 80% 29.39 in 10.0 mi Calm Calm - N/A   Overcast
9:58 PM 1.9 °F -5.6 °F -0.9 °F 88% 29.39 in 10.0 mi East 3.5 mph - N/A   Clear
10:58 PM 1.0 °F - -2.9 °F 83% 29.40 in 10.0 mi Calm Calm - N/A   Clear
11:58 PM -2.0 °F - -6.0 °F 83% 29.41 in 10.0 mi Calm Calm - N/A   Clear